Cloud_Cover
97 6 75 100 58 23 83 69 60 9 44 47 98 4 5 5 0 58 100 99 100 100 100 100 100 78 100 77 86 83 66 100 33 100 26 5 32 65 100 72 89 100 79 97
100 49 75 94 92 13 5 19 3 39 6 0 7 0 67 33 4 3 99 98 100 100 100 100 100 85 16 5 9 84 57 100 100 74 76 4 20 40 36 53 36 77 62 73
7 69 63 90 20 5 17 12 4 5 5 78 2 0 0 0 0 0 5 20 57 83 94 82 49 75 37 0 21 100 90 100 57 26 5 57 100 76 80 100 97 20 37 7
87 71 86 91 4 5 45 1 2 2 0 2 0 0 0 0 0 0 0 0 84 100 5 2 0 2 47 31 12 96 25 10 5 11 100 100 100 100 98 63 100 100 57 5
99 65 6 4 1 36 92 75 62 4 8 9 7 2 0 0 0 2 0 0 0 0 0 0 0 0 0 1 0 3 4 40 99 100 100 100 100 100 100 100 100 100 42 24
48 99 4 2 4 100 18 9 93 75 13 70 5 0 3 0 0 0 0 0 0 0 0 0 0 0 0 0 0 0 3 68 92 100 100 100 100 100 100 100 100 98 100 100
0 0 0 0 2 12 5 5 2 5 28 5 1 8 94 0 0 0 0 0 0 0 0 0 0 0 0 0 0 3 4 100 100 100 100 100 52 5 81 100 100 100 100 100
26 0 3 0 3 2 4 4 0 4 5 10 5 0 0 0 0 0 0 0 0 0 0 0 0 0 0 0 0 0 0 0 80 100 100 100 100 100 100 100 98 100 100 100
81 50 5 2 4 8 0 0 0 5 3 2 3 0 0 0 0 0 0 0 0 0 0 0 0 0 0 0 2 3 2 0 0 3 96 100 96 100 100 100 95 99 92 100
29 0 8 3 5 7 1 0 0 0 4 4 0 0 0 0 0 0 0 0 0 0 0 0 0 0 0 0 0 0 5 5 0 0 0 3 34 100 100 100 100 100 100 48
7 5 28 2 1 0 0 0 0 0 0 0 0 0 0 0 0 0 0 0 0 0 0 0 0 0 0 0 0 0 0 2 24 0 1 2 38 100 100 100 100 100 100 74
35 38 0 0 0 0 0 0 3 0 0 0 0 0 0 0 0 0 0 0 0 0 0 0 0 0 0 0 0 0 0 8 5 62 59 28 6 48 100 100 100 100 100 100
100 76 0 0 0 0 0 2 0 0 0 0 0 0 0 0 0 0 0 0 0 0 0 0 0 0 0 0 0 0 9 16 17 55 100 100 94 99 100 100 100 100 100 100
0 0 0 0 0 0 0 0 0 0 0 0 0 0 0 0 0 0 0 0 0 0 0 0 0 0 0 0 0 0 2 0 21 38 64 100 100 100 100 100 100 100 100 100
0 0 0 0 0 0 0 0 0 0 0 0 0 0 0 0 0 0 0 0 0 0 0 0 0 0 0 7 0 0 0 7 27 50 83 100 100 100 100 100 100 100 100 100
0 0 0 0 0 0 0 0 0 0 0 0 0 0 0 0 0 0 0 0 0 0 0 0 0 0 0 8 6 0 2 17 20 83 95 100 100 100 100 100 100 100 100 100
0 0 0 0 0 0 0 0 0 0 0 0 0 0 0 0 0 0 0 0 0 0 0 0 0 0 0 0 2 0 73 75 60 100 100 100 100 100 100 100 100 100 100 100
0 0 0 0 0 0 0 0 0 0 0 0 0 0 0 0 0 0 0 0 0 0 0 0 0 0 0 0 2 5 100 100 93 100 100 99 100 100 100 100 100 100 100 100
0 0 0 0 0 0 0 0 0 0 0 0 0 0 0 0 0 0 0 0 0 0 0 0 0 0 0 0 4 9 45 50 72 97 50 92 100 100 100 100 100 100 100 100
0 0 0 0 0 0 0 0 0 0 0 0 0 0 0 0 0 0 0 0 0 0 0 0 0 0 0 3 10 10 21 41 38 25 22 24 100 94 100 100 100 100 100 100
0 0 0 0 0 0 0 0 0 0 0 0 0 2 5 5 4 1 2 0 0 0 0 0 0 0 0 20 10 9 22 35 3 6 18 27 57 97 96 100 100 100 100 100
0 0 0 0 0 0 0 0 0 0 0 3 5 5 5 5 5 1 0 0 0 0 0 0 0 0 2 2 3 8 18 82 55 4 26 29 29 26 40 81 100 73 100 100
0 0 0 0 0 0 0 0 0 4 4 3 2 1 4 3 2 0 0 0 0 0 0 0 0 0 5 7 4 9 2 4 10 13 19 23 19 100 16 23 27 84 100 82
0 0 0 0 0 0 0 1 3 7 51 37 44 5 5 4 4 2 0 0 0 0 0 0 0 0 0 0 5 1 0 0 0 11 20 13 46 35 99 71 18 34 8 59
0 0 0 0 0 0 0 0 0 0 0 2 2 3 4 0 0 0 1 0 0 0 0 0 0 0 0 0 0 2 3 0 0 4 36 18 50 98 100 100 100 100 35 16
1 0 0 0 0 0 0 0 0 0 0 0 0 0 0 0 2 2 0 0 2 1 0 0 1 0 0 0 2 3 0 0 38 95 77 96 95 100 100 100 100 100 100 15